CAPE
nan nan nan nan nan nan nan nan nan nan nan nan nan nan nan nan nan nan nan nan nan nan nan nan nan nan nan nan nan nan 0 1 1 1 2 2 1 1 3 4 4 5 5 5 5 6 3 4 4 6 5 8 9 9 12 11 11 10 22 24 24 33 36 29 29 28 19 12 4 4 0 nan nan nan nan nan nan nan nan nan nan nan nan nan nan 1
nan nan nan nan nan nan nan nan nan nan nan nan nan nan nan nan nan nan nan nan nan nan nan nan nan nan nan nan 0 0 1 2 2 2 2 2 3 3 5 7 7 7 4 1 1 nan nan nan nan nan nan nan nan nan nan 0 0 nan 1 1 1 6 10 13 13 14 10 6 2 2 nan nan nan nan nan nan nan nan nan nan nan nan nan nan nan 0
nan nan nan nan nan nan nan nan nan nan nan nan nan nan nan nan nan nan nan nan nan nan nan nan nan nan nan nan 1 1 3 3 3 3 2 3 4 4 5 6 6 4 1 0 0 nan nan nan nan nan nan nan nan nan nan nan nan nan nan nan nan nan 0 1 1 1 0 nan nan nan nan nan nan nan nan nan nan nan nan nan nan nan nan nan nan 1
nan nan nan nan nan nan nan nan nan nan nan nan nan nan nan nan nan nan nan nan nan nan nan nan nan nan nan nan 3 3 4 4 3 3 3 2 4 4 6 5 5 2 1 nan nan nan nan nan nan nan nan nan nan nan nan nan nan nan nan nan nan nan nan nan nan nan nan nan nan nan nan nan nan nan nan nan nan nan nan nan nan nan nan nan nan 0
nan nan nan nan nan nan nan nan nan nan nan nan nan nan nan nan nan nan nan nan nan nan nan nan nan nan nan nan 2 2 4 4 4 4 3 5 6 6 7 5 5 3 1 0 0 nan nan nan nan nan nan nan nan nan nan nan nan nan nan nan nan nan nan nan nan nan nan nan nan nan nan nan nan nan nan nan nan nan nan nan nan nan nan nan nan nan
nan nan nan nan nan nan nan nan nan nan nan nan nan nan nan nan nan nan nan nan nan nan nan nan nan nan nan nan 3 3 4 5 6 6 6 7 9 9 9 6 6 3 2 0 0 nan nan nan nan nan nan nan nan nan nan nan nan nan nan nan nan nan nan nan nan nan nan nan nan nan nan nan nan nan nan nan nan nan nan nan nan nan nan nan nan nan
nan nan nan nan nan nan nan nan nan nan nan nan nan nan nan nan nan nan nan nan nan nan nan nan nan nan nan nan 3 3 6 6 6 6 8 9 12 12 12 10 10 6 3 1 1 nan nan nan nan nan nan nan nan nan nan nan nan nan nan nan nan nan nan nan nan nan nan nan nan nan nan nan nan nan nan nan nan nan nan nan nan nan nan nan nan nan
nan nan nan nan nan nan nan nan nan nan nan nan nan nan nan nan nan nan nan nan nan nan nan nan nan nan nan nan nan nan nan nan 3 3 6 14 16 16 17 15 15 11 6 2 2 1 1 0 0 nan nan nan nan nan nan nan nan nan nan nan nan nan nan nan nan nan nan nan nan nan nan nan nan nan nan nan nan nan nan nan nan nan nan nan nan nan
nan nan nan nan nan nan nan nan nan nan nan nan nan nan nan nan nan nan nan nan nan nan nan nan nan nan nan nan nan nan nan nan nan nan nan nan 0 0 13 18 18 13 6 3 3 2 1 1 1 0 nan nan nan nan nan nan nan nan nan nan nan nan nan nan nan nan nan nan nan nan nan nan nan nan nan nan nan nan nan nan nan nan nan nan nan nan
nan nan nan nan nan nan nan nan nan nan nan nan nan nan nan nan nan nan nan nan nan nan nan nan nan nan nan nan nan nan nan 2 13 13 15 3 12 12 10 8 8 7 6 4 4 2 1 1 1 1 nan nan nan nan nan nan nan nan nan nan nan nan nan nan nan nan nan nan nan nan nan nan nan nan nan nan nan nan nan nan nan nan nan nan nan nan
nan nan nan nan nan nan nan nan nan nan nan nan nan nan nan nan nan nan nan nan nan nan nan nan nan nan nan nan nan nan nan nan nan nan 0 1 6 6 11 6 6 7 6 4 4 2 1 2 2 1 nan nan nan nan nan nan nan nan nan nan nan nan nan nan nan nan nan nan nan nan nan nan nan nan nan nan nan nan nan nan nan nan nan nan nan nan
nan nan nan nan nan nan nan nan nan nan nan nan nan nan nan nan nan nan nan nan nan nan nan nan nan nan nan nan nan nan nan nan nan nan nan nan nan nan nan 0 0 3 4 5 5 2 2 2 2 0 nan nan nan nan nan nan nan nan nan nan nan nan nan nan nan nan nan nan nan nan nan nan nan nan nan nan nan nan nan nan nan nan nan nan nan nan
nan nan nan nan nan nan nan nan nan nan nan nan nan nan nan nan nan nan nan nan nan nan nan nan nan nan nan nan nan nan nan nan nan nan nan nan nan nan nan nan nan nan nan nan nan nan 1 1 1 nan nan nan nan nan nan nan nan nan nan nan nan nan nan nan nan nan nan nan nan nan nan nan nan nan nan nan nan nan nan nan nan nan nan nan nan nan
nan nan nan nan nan nan nan nan nan nan nan nan nan nan nan nan nan nan nan nan nan nan nan nan nan nan nan nan nan nan nan nan nan nan nan nan nan nan nan nan nan nan nan nan nan nan nan nan nan nan nan nan nan nan nan nan nan nan nan nan nan nan nan nan nan nan nan nan nan nan nan nan nan nan nan nan nan nan nan nan nan nan nan nan nan nan
nan nan nan nan nan nan nan nan nan nan nan nan nan nan nan nan nan nan nan nan nan nan nan nan nan nan nan nan nan nan nan nan nan nan nan nan nan nan nan nan nan nan nan nan nan nan nan nan nan nan nan nan nan nan nan nan nan nan nan nan nan nan nan nan nan nan nan nan nan nan nan nan nan nan nan nan nan nan nan nan nan nan nan nan nan nan
nan nan nan nan nan nan nan nan nan nan nan nan nan nan nan nan nan nan nan nan nan nan nan nan nan nan nan nan nan nan nan nan nan nan nan nan nan nan nan nan nan nan nan nan nan nan nan nan nan nan nan nan nan nan nan nan nan nan nan nan nan nan nan nan nan nan nan nan nan nan nan nan nan nan 0 0 nan nan nan nan nan nan nan nan nan nan
nan nan nan nan nan nan nan nan nan nan nan nan nan nan nan nan nan nan nan nan nan nan nan nan nan nan nan nan nan nan nan nan nan nan nan nan nan nan nan nan nan nan nan nan nan nan nan nan nan nan nan nan nan nan nan nan nan nan nan nan nan nan nan nan nan nan nan nan nan nan nan nan 0 0 0 0 nan nan nan nan nan nan nan nan nan nan
nan nan nan nan nan nan nan nan nan nan nan nan nan nan nan nan nan nan nan nan nan nan nan nan nan nan nan nan nan nan nan nan nan nan nan nan nan nan nan nan nan nan nan nan nan nan nan nan nan nan nan nan nan nan nan nan nan nan nan nan nan nan nan nan nan nan nan nan nan nan nan nan 0 0 0 1 0 0 nan nan nan nan nan nan nan nan
nan nan nan nan nan nan nan nan nan nan nan nan nan nan nan nan nan nan nan nan nan nan nan nan nan nan nan nan nan nan nan nan nan nan nan nan nan nan nan nan nan nan nan nan nan nan nan nan nan nan nan nan nan nan nan nan nan nan nan nan nan nan nan 0 0 0 0 nan nan nan 0 1 1 1 1 1 0 0 nan nan nan nan nan nan nan nan
nan nan nan nan nan nan nan nan nan nan nan nan nan nan nan nan nan nan nan nan nan nan nan nan nan nan nan nan nan nan nan nan nan nan nan nan nan nan nan nan nan nan nan nan nan nan nan nan nan nan nan nan nan nan nan nan nan nan nan nan nan nan 0 1 1 1 1 0 0 0 1 1 1 1 1 1 0 0 0 nan nan nan nan nan nan nan
1 0 nan nan nan nan nan nan nan nan nan nan nan nan nan nan nan nan nan nan nan nan nan nan nan nan nan nan nan nan nan nan nan nan nan nan nan nan nan nan nan nan nan nan nan nan nan nan nan nan nan nan nan nan nan nan nan nan nan nan nan 0 1 2 2 2 1 0 0 0 2 2 2 2 2 1 1 1 0 0 0 nan nan nan nan nan
nan 0 nan nan nan nan nan nan nan nan nan nan nan nan nan nan nan nan nan nan nan nan nan nan nan nan nan nan nan nan nan nan nan nan nan nan nan nan nan nan nan nan nan nan nan nan nan nan nan nan nan nan nan nan nan nan nan nan nan nan nan 0 2 3 3 3 1 0 0 0 2 3 3 3 3 2 1 1 1 0 0 nan nan nan nan nan
nan nan nan nan nan nan nan nan nan nan nan nan nan nan nan nan nan nan nan nan nan nan nan nan nan nan nan nan nan nan nan nan nan nan nan nan nan nan nan nan nan nan nan nan nan nan nan nan nan nan nan nan nan nan nan nan nan nan nan nan nan 1 3 3 3 3 1 nan 1 1 3 3 3 3 3 2 1 1 0 0 0 nan nan nan nan nan
nan nan nan nan nan nan nan nan nan nan nan nan nan nan nan nan nan nan nan nan nan nan nan nan nan nan nan nan nan nan nan nan nan nan nan nan nan nan nan nan nan nan nan nan nan nan nan nan nan nan nan nan nan nan nan nan nan nan nan nan nan 1 3 4 4 3 0 nan 2 2 3 4 4 4 3 1 1 1 0 nan nan nan nan nan nan nan
nan nan nan nan nan nan nan nan nan nan nan nan nan nan nan nan nan nan nan nan nan nan nan nan nan nan nan nan nan nan nan nan nan nan nan nan nan nan nan nan nan nan nan nan nan nan nan nan nan nan nan nan nan nan nan nan nan nan nan nan nan 1 3 4 4 3 0 0 3 3 4 4 4 4 2 1 1 1 0 nan nan nan nan nan nan nan
nan nan nan nan nan nan nan nan nan nan nan nan nan nan nan nan nan nan nan nan nan nan nan nan nan nan nan nan nan nan nan nan nan nan nan nan nan nan nan nan nan nan nan nan nan nan nan nan nan nan nan nan nan nan nan nan nan nan nan nan nan 1 3 4 4 2 1 1 4 4 4 4 3 3 3 2 1 1 1 0 0 nan nan nan nan nan
nan nan nan nan nan nan nan nan nan nan nan nan nan nan nan nan nan nan nan nan nan nan nan nan nan nan nan nan nan nan nan nan nan nan nan nan nan nan nan nan nan nan nan nan nan nan nan nan nan nan nan nan nan nan nan nan nan nan nan nan nan 0 3 5 5 3 2 3 4 4 5 4 4 4 3 3 2 2 1 0 0 nan nan nan nan nan
nan nan nan 0 0 nan nan nan 0 0 0 nan nan nan nan nan nan nan nan nan nan nan nan nan nan nan nan nan nan nan nan nan nan nan nan nan nan nan nan nan nan nan nan nan nan nan nan nan nan nan nan nan nan nan nan nan nan nan nan nan nan 0 3 6 6 4 4 4 5 5 5 5 5 5 5 4 3 3 2 0 0 0 nan nan nan nan
nan 0 0 0 0 nan nan 0 0 0 1 1 0 0 nan nan nan nan nan nan nan nan nan nan nan nan nan nan nan nan nan nan nan nan nan nan nan nan nan nan nan nan nan nan nan nan nan nan nan nan nan nan nan nan nan nan nan nan nan nan nan nan 3 7 7 6 6 5 6 6 6 6 6 6 5 4 3 3 2 1 1 nan nan nan nan nan
nan 1 1 3 3 3 1 nan 2 2 2 2 1 1 nan nan nan nan nan nan nan nan nan nan nan nan nan nan nan nan nan nan nan nan nan nan nan nan nan nan nan nan nan nan nan nan nan nan nan nan nan nan nan nan nan nan nan nan nan nan nan nan 3 6 6 7 6 7 6 6 6 6 6 6 5 4 3 3 3 1 1 nan nan nan nan nan
nan nan nan nan nan nan nan nan 1 1 6 4 1 1 nan nan nan nan nan nan nan nan nan nan nan nan nan nan nan nan nan nan nan nan nan nan nan nan nan nan nan nan nan nan nan nan nan nan nan nan nan nan nan nan nan nan nan nan nan nan nan nan 3 7 7 7 7 7 6 6 5 5 5 5 4 3 3 3 2 1 1 nan nan nan nan nan
nan nan nan nan nan nan nan nan nan nan nan nan nan nan nan nan nan nan nan nan nan nan nan nan nan nan nan nan nan nan nan nan nan nan nan nan nan nan nan nan nan nan nan nan nan nan nan nan nan nan nan nan nan nan nan nan nan nan nan nan nan nan 3 14 14 8 6 7 5 5 4 3 1 1 1 0 0 0 0 nan nan nan nan nan nan nan
nan nan nan nan nan nan nan nan nan nan nan nan nan nan nan nan nan nan nan nan nan nan nan nan nan nan nan nan nan nan nan nan nan nan nan nan nan nan nan nan nan nan nan nan nan nan nan nan nan nan nan nan nan nan nan nan nan nan nan nan nan nan nan 0 0 nan 0 0 nan nan 3 nan nan nan nan nan nan nan nan nan nan nan nan nan nan nan
nan nan nan nan nan nan nan nan nan nan nan nan nan nan nan nan nan nan nan nan nan nan nan nan nan nan nan nan nan nan nan nan nan nan nan nan nan nan nan nan nan nan nan nan nan nan nan nan nan nan nan nan nan nan nan nan nan nan nan nan nan nan nan nan nan nan nan nan nan nan nan nan nan nan nan nan nan nan nan nan nan nan nan nan nan nan
nan nan nan nan nan nan nan nan nan nan nan nan nan nan nan nan nan nan nan nan nan nan nan nan nan nan nan nan nan nan nan nan nan nan nan nan nan nan nan nan nan nan nan nan nan nan nan nan nan nan nan nan nan nan nan nan nan nan nan nan nan nan nan nan nan nan nan nan nan nan nan nan nan nan nan nan nan nan nan nan nan nan nan nan nan nan
nan nan nan nan nan nan nan nan nan nan nan nan nan nan nan nan nan nan nan nan nan nan nan nan nan nan nan nan nan nan nan nan nan nan nan nan nan nan nan nan nan nan nan nan nan nan nan nan nan nan nan nan nan nan nan nan nan nan nan nan nan nan nan nan nan nan nan nan nan nan nan nan nan nan nan nan nan nan nan nan nan nan nan nan nan nan
nan nan nan nan nan nan nan nan nan nan nan nan nan nan nan nan nan nan nan nan nan nan nan nan nan nan nan nan nan nan nan nan nan nan nan nan nan nan nan nan nan nan nan nan nan nan nan nan nan nan nan nan nan nan nan nan nan nan nan nan nan nan nan nan nan nan nan nan nan nan nan nan nan nan nan nan nan nan nan nan nan nan nan nan nan nan
nan nan nan nan nan nan nan nan nan nan nan nan nan nan nan nan nan nan nan nan nan nan nan nan nan nan nan nan nan nan nan nan nan nan nan nan nan nan nan nan nan nan nan nan nan nan nan nan nan nan nan nan nan nan nan nan nan nan nan nan nan nan nan nan nan nan nan nan nan nan nan nan nan nan nan nan nan nan nan nan nan nan nan nan nan nan
nan nan nan nan nan nan nan nan nan nan nan nan nan nan nan nan nan nan nan nan nan nan nan nan nan nan nan nan nan nan nan nan nan nan nan nan nan nan nan nan nan nan nan nan nan nan nan nan nan nan nan nan nan nan nan nan nan nan nan nan nan nan nan nan nan nan nan nan nan nan nan nan nan nan nan nan nan nan nan nan nan nan nan nan nan nan
nan nan nan nan nan nan nan nan nan nan nan nan nan nan nan nan nan nan nan nan nan nan nan nan nan nan nan nan nan nan nan nan nan nan nan nan nan nan nan nan nan nan nan nan nan nan nan nan nan nan nan nan nan nan nan nan nan nan nan nan nan nan nan nan nan nan nan nan nan nan nan nan nan nan nan nan nan nan nan nan nan nan nan nan nan nan
nan nan nan nan nan nan nan nan nan nan nan nan nan nan nan nan nan nan nan nan nan nan nan nan nan nan nan nan nan nan nan nan nan nan nan nan nan nan nan nan nan nan nan nan nan nan nan nan nan nan nan nan nan nan nan nan nan nan nan nan nan nan nan nan nan nan nan nan nan nan nan nan nan nan nan nan nan nan nan nan nan nan nan nan nan nan
nan nan nan nan nan nan nan nan nan nan nan nan nan nan nan nan nan nan nan nan nan nan nan nan nan nan nan nan nan nan nan nan nan nan nan nan nan nan nan nan nan nan nan nan nan nan nan nan nan nan nan nan nan nan nan nan nan nan nan nan nan nan nan nan nan nan nan nan nan nan nan nan nan nan nan nan nan nan nan nan nan nan nan nan nan nan
nan nan nan nan nan nan nan nan nan nan nan nan nan nan nan nan nan nan nan nan nan nan nan nan nan nan nan nan nan nan nan nan nan nan nan nan nan nan nan nan nan nan nan nan nan nan nan nan nan nan nan nan nan nan nan nan nan nan nan nan nan nan nan nan nan nan nan nan nan nan nan nan nan nan nan nan nan nan nan nan nan nan nan nan nan nan
nan nan nan nan nan nan nan nan nan nan nan nan nan nan nan nan nan nan nan nan nan nan nan nan nan nan nan nan nan nan nan nan nan nan nan nan nan nan nan nan nan nan nan nan nan nan nan nan nan nan nan nan nan nan nan nan nan nan nan nan nan nan nan nan nan nan nan nan nan nan nan nan nan nan nan nan nan nan nan nan nan nan nan nan nan nan
nan nan nan nan nan nan nan nan nan nan nan nan nan nan nan nan nan nan nan nan nan nan nan nan nan nan nan nan nan nan nan nan nan nan nan nan nan nan nan nan nan nan nan nan nan nan nan nan nan nan nan nan nan nan nan nan nan nan nan nan nan nan nan nan nan nan nan nan nan nan nan nan nan nan nan nan nan nan nan nan nan nan nan nan nan nan
nan nan nan nan nan nan nan nan nan nan nan nan nan nan nan nan nan nan nan nan nan nan nan nan nan nan nan nan nan nan nan nan nan nan nan nan nan nan nan nan nan nan nan nan nan nan nan nan nan nan nan nan nan nan nan nan nan nan nan nan nan nan nan nan nan nan nan nan nan nan nan nan nan nan nan nan nan nan nan nan nan nan nan nan nan nan
nan nan nan nan nan nan nan nan nan nan nan nan nan nan nan nan nan nan nan nan nan nan nan nan nan nan nan nan nan nan nan nan nan nan nan nan nan nan nan nan nan nan nan nan nan nan nan nan nan nan nan nan nan nan nan nan nan nan nan nan nan nan nan nan nan nan nan nan nan nan nan nan nan nan nan nan nan nan nan nan nan nan nan nan nan nan
nan nan nan nan nan nan nan nan nan nan nan nan nan nan nan nan nan nan nan nan nan nan nan nan nan nan nan nan nan nan nan nan nan nan nan nan nan nan nan nan nan nan nan nan nan nan nan nan nan nan nan nan nan nan nan nan nan nan nan nan nan nan nan nan nan nan nan nan nan nan nan nan nan nan nan nan nan nan nan nan nan nan nan nan nan nan
nan nan nan nan nan nan nan nan nan nan nan nan nan nan nan nan nan nan nan nan nan nan nan nan nan nan nan nan nan nan nan nan nan nan nan nan nan nan nan nan nan nan nan nan nan nan nan nan nan nan nan nan nan nan nan nan nan nan nan nan nan nan nan nan nan nan nan nan nan nan nan nan nan nan nan nan nan nan nan nan nan nan nan nan nan nan
nan nan nan nan nan nan nan nan nan nan nan nan nan nan nan nan nan nan nan nan nan nan nan nan nan nan nan nan nan nan nan nan nan nan nan nan nan nan nan nan nan nan nan nan nan nan nan nan nan nan nan nan nan nan nan nan nan nan nan nan nan nan nan nan nan nan nan nan nan nan nan nan nan nan nan nan nan nan nan nan nan nan nan nan nan nan
nan nan nan nan nan nan nan nan nan nan nan nan nan nan nan nan nan nan nan nan nan nan nan nan nan nan nan nan nan nan nan nan nan nan nan nan nan nan nan nan nan nan nan nan nan nan nan nan nan nan nan nan nan nan nan nan nan nan nan nan nan nan nan nan nan nan nan nan nan nan nan nan nan nan nan nan nan nan nan nan nan nan nan nan nan nan
CIN
nan nan nan nan nan nan nan nan nan nan nan nan nan nan nan nan nan nan nan nan nan nan nan nan nan nan nan nan nan nan -0 0 0 0 0 0 0 0 0 0 0 0 -0 -0 -0 -0 -1 -1 -1 -2 -1 -2 -2 -2 -0 0 0 0 -0 -0 -0 0 0 0 0 0 0 0 0 0 -0 nan nan nan nan nan nan nan nan nan nan nan nan nan nan -1
nan nan nan nan nan nan nan nan nan nan nan nan nan nan nan nan nan nan nan nan nan nan nan nan nan nan nan nan -1 -1 0 0 0 0 0 0 0 0 0 0 0 0 0 -0 -0 nan nan nan nan nan nan nan nan nan nan 0 0 nan 0 0 0 0 0 0 0 0 0 0 0 0 nan nan nan nan nan nan nan nan nan nan nan nan nan nan nan -1
nan nan nan nan nan nan nan nan nan nan nan nan nan nan nan nan nan nan nan nan nan nan nan nan nan nan nan nan -0 -0 0 0 0 0 0 0 0 0 0 0 0 0 0 -0 -0 nan nan nan nan nan nan nan nan nan nan nan nan nan nan nan nan nan 0 0 0 0 -0 nan nan nan nan nan nan nan nan nan nan nan nan nan nan nan nan nan nan -1
nan nan nan nan nan nan nan nan nan nan nan nan nan nan nan nan nan nan nan nan nan nan nan nan nan nan nan nan -0 -0 0 0 0 0 0 0 0 0 0 0 0 0 0 nan nan nan nan nan nan nan nan nan nan nan nan nan nan nan nan nan nan nan nan nan nan nan nan nan nan nan nan nan nan nan nan nan nan nan nan nan nan nan nan nan nan -1
nan nan nan nan nan nan nan nan nan nan nan nan nan nan nan nan nan nan nan nan nan nan nan nan nan nan nan nan -0 -0 0 0 0 0 0 0 0 0 0 0 0 0 0 -0 -0 nan nan nan nan nan nan nan nan nan nan nan nan nan nan nan nan nan nan nan nan nan nan nan nan nan nan nan nan nan nan nan nan nan nan nan nan nan nan nan nan nan
nan nan nan nan nan nan nan nan nan nan nan nan nan nan nan nan nan nan nan nan nan nan nan nan nan nan nan nan -0 -0 0 0 0 0 0 0 0 0 0 0 0 0 0 0 0 nan nan nan nan nan nan nan nan nan nan nan nan nan nan nan nan nan nan nan nan nan nan nan nan nan nan nan nan nan nan nan nan nan nan nan nan nan nan nan nan nan
nan nan nan nan nan nan nan nan nan nan nan nan nan nan nan nan nan nan nan nan nan nan nan nan nan nan nan nan -0 -0 -0 0 0 0 0 0 0 0 0 0 0 0 0 0 0 nan nan nan nan nan nan nan nan nan nan nan nan nan nan nan nan nan nan nan nan nan nan nan nan nan nan nan nan nan nan nan nan nan nan nan nan nan nan nan nan nan
nan nan nan nan nan nan nan nan nan nan nan nan nan nan nan nan nan nan nan nan nan nan nan nan nan nan nan nan nan nan nan nan -2 -2 -2 -0 0 0 0 0 0 0 0 0 0 0 -0 -0 -0 nan nan nan nan nan nan nan nan nan nan nan nan nan nan nan nan nan nan nan nan nan nan nan nan nan nan nan nan nan nan nan nan nan nan nan nan nan
nan nan nan nan nan nan nan nan nan nan nan nan nan nan nan nan nan nan nan nan nan nan nan nan nan nan nan nan nan nan nan nan nan nan nan nan -9 -9 -0 0 0 0 0 0 0 0 0 -0 -0 -0 nan nan nan nan nan nan nan nan nan nan nan nan nan nan nan nan nan nan nan nan nan nan nan nan nan nan nan nan nan nan nan nan nan nan nan nan
nan nan nan nan nan nan nan nan nan nan nan nan nan nan nan nan nan nan nan nan nan nan nan nan nan nan nan nan nan nan nan -1 0 0 0 -1 -0 -0 -1 -1 -1 -1 0 0 0 0 0 0 0 0 nan nan nan nan nan nan nan nan nan nan nan nan nan nan nan nan nan nan nan nan nan nan nan nan nan nan nan nan nan nan nan nan nan nan nan nan
nan nan nan nan nan nan nan nan nan nan nan nan nan nan nan nan nan nan nan nan nan nan nan nan nan nan nan nan nan nan nan nan nan nan -7 -8 -3 -3 -1 -2 -2 -2 -0 0 0 0 0 0 0 0 nan nan nan nan nan nan nan nan nan nan nan nan nan nan nan nan nan nan nan nan nan nan nan nan nan nan nan nan nan nan nan nan nan nan nan nan
nan nan nan nan nan nan nan nan nan nan nan nan nan nan nan nan nan nan nan nan nan nan nan nan nan nan nan nan nan nan nan nan nan nan nan nan nan nan nan -5 -5 -5 -3 0 0 0 0 0 0 0 nan nan nan nan nan nan nan nan nan nan nan nan nan nan nan nan nan nan nan nan nan nan nan nan nan nan nan nan nan nan nan nan nan nan nan nan
nan nan nan nan nan nan nan nan nan nan nan nan nan nan nan nan nan nan nan nan nan nan nan nan nan nan nan nan nan nan nan nan nan nan nan nan nan nan nan nan nan nan nan nan nan nan -4 -0 -0 nan nan nan nan nan nan nan nan nan nan nan nan nan nan nan nan nan nan nan nan nan nan nan nan nan nan nan nan nan nan nan nan nan nan nan nan nan
nan nan nan nan nan nan nan nan nan nan nan nan nan nan nan nan nan nan nan nan nan nan nan nan nan nan nan nan nan nan nan nan nan nan nan nan nan nan nan nan nan nan nan nan nan nan nan nan nan nan nan nan nan nan nan nan nan nan nan nan nan nan nan nan nan nan nan nan nan nan nan nan nan nan nan nan nan nan nan nan nan nan nan nan nan nan
nan nan nan nan nan nan nan nan nan nan nan nan nan nan nan nan nan nan nan nan nan nan nan nan nan nan nan nan nan nan nan nan nan nan nan nan nan nan nan nan nan nan nan nan nan nan nan nan nan nan nan nan nan nan nan nan nan nan nan nan nan nan nan nan nan nan nan nan nan nan nan nan nan nan nan nan nan nan nan nan nan nan nan nan nan nan
nan nan nan nan nan nan nan nan nan nan nan nan nan nan nan nan nan nan nan nan nan nan nan nan nan nan nan nan nan nan nan nan nan nan nan nan nan nan nan nan nan nan nan nan nan nan nan nan nan nan nan nan nan nan nan nan nan nan nan nan nan nan nan nan nan nan nan nan nan nan nan nan nan nan 0 0 nan nan nan nan nan nan nan nan nan nan
nan nan nan nan nan nan nan nan nan nan nan nan nan nan nan nan nan nan nan nan nan nan nan nan nan nan nan nan nan nan nan nan nan nan nan nan nan nan nan nan nan nan nan nan nan nan nan nan nan nan nan nan nan nan nan nan nan nan nan nan nan nan nan nan nan nan nan nan nan nan nan nan -0 -0 0 0 nan nan nan nan nan nan nan nan nan nan
nan nan nan nan nan nan nan nan nan nan nan nan nan nan nan nan nan nan nan nan nan nan nan nan nan nan nan nan nan nan nan nan nan nan nan nan nan nan nan nan nan nan nan nan nan nan nan nan nan nan nan nan nan nan nan nan nan nan nan nan nan nan nan nan nan nan nan nan nan nan nan nan 0 0 0 0 0 0 nan nan nan nan nan nan nan nan
nan nan nan nan nan nan nan nan nan nan nan nan nan nan nan nan nan nan nan nan nan nan nan nan nan nan nan nan nan nan nan nan nan nan nan nan nan nan nan nan nan nan nan nan nan nan nan nan nan nan nan nan nan nan nan nan nan nan nan nan nan nan nan 0 0 0 0 nan nan nan 0 0 0 0 0 0 0 0 nan nan nan nan nan nan nan nan
nan nan nan nan nan nan nan nan nan nan nan nan nan nan nan nan nan nan nan nan nan nan nan nan nan nan nan nan nan nan nan nan nan nan nan nan nan nan nan nan nan nan nan nan nan nan nan nan nan nan nan nan nan nan nan nan nan nan nan nan nan nan 0 0 0 0 0 0 0 0 0 0 0 0 0 0 0 0 -0 nan nan nan nan nan nan nan
-16 -19 nan nan nan nan nan nan nan nan nan nan nan nan nan nan nan nan nan nan nan nan nan nan nan nan nan nan nan nan nan nan nan nan nan nan nan nan nan nan nan nan nan nan nan nan nan nan nan nan nan nan nan nan nan nan nan nan nan nan nan 0 0 0 0 0 0 0 0 0 0 0 0 0 0 0 0 0 0 -0 -0 nan nan nan nan nan
nan -17 nan nan nan nan nan nan nan nan nan nan nan nan nan nan nan nan nan nan nan nan nan nan nan nan nan nan nan nan nan nan nan nan nan nan nan nan nan nan nan nan nan nan nan nan nan nan nan nan nan nan nan nan nan nan nan nan nan nan nan 0 0 0 0 0 0 0 0 0 0 0 0 0 0 0 0 0 0 0 0 nan nan nan nan nan
nan nan nan nan nan nan nan nan nan nan nan nan nan nan nan nan nan nan nan nan nan nan nan nan nan nan nan nan nan nan nan nan nan nan nan nan nan nan nan nan nan nan nan nan nan nan nan nan nan nan nan nan nan nan nan nan nan nan nan nan nan 0 0 0 0 0 0 nan 0 0 0 0 0 0 0 0 0 0 0 0 0 nan nan nan nan nan
nan nan nan nan nan nan nan nan nan nan nan nan nan nan nan nan nan nan nan nan nan nan nan nan nan nan nan nan nan nan nan nan nan nan nan nan nan nan nan nan nan nan nan nan nan nan nan nan nan nan nan nan nan nan nan nan nan nan nan nan nan 0 0 0 0 0 0 nan 0 0 0 0 0 0 0 0 0 0 -0 nan nan nan nan nan nan nan
nan nan nan nan nan nan nan nan nan nan nan nan nan nan nan nan nan nan nan nan nan nan nan nan nan nan nan nan nan nan nan nan nan nan nan nan nan nan nan nan nan nan nan nan nan nan nan nan nan nan nan nan nan nan nan nan nan nan nan nan nan 0 0 0 0 0 0 0 0 0 0 0 0 0 0 0 0 0 -0 nan nan nan nan nan nan nan
nan nan nan nan nan nan nan nan nan nan nan nan nan nan nan nan nan nan nan nan nan nan nan nan nan nan nan nan nan nan nan nan nan nan nan nan nan nan nan nan nan nan nan nan nan nan nan nan nan nan nan nan nan nan nan nan nan nan nan nan nan 0 0 0 0 0 0 0 0 0 0 0 0 0 0 0 0 0 0 -0 -0 nan nan nan nan nan
nan nan nan nan nan nan nan nan nan nan nan nan nan nan nan nan nan nan nan nan nan nan nan nan nan nan nan nan nan nan nan nan nan nan nan nan nan nan nan nan nan nan nan nan nan nan nan nan nan nan nan nan nan nan nan nan nan nan nan nan nan 0 0 0 0 0 0 0 0 0 0 0 0 0 0 0 0 0 0 0 0 nan nan nan nan nan
nan nan nan -0 -0 nan nan nan 0 0 0 nan nan nan nan nan nan nan nan nan nan nan nan nan nan nan nan nan nan nan nan nan nan nan nan nan nan nan nan nan nan nan nan nan nan nan nan nan nan nan nan nan nan nan nan nan nan nan nan nan nan 0 0 0 0 0 0 0 0 0 0 0 0 0 0 0 0 0 0 0 0 0 nan nan nan nan
nan -0 -0 -0 -0 nan nan 0 0 0 0 0 0 0 nan nan nan nan nan nan nan nan nan nan nan nan nan nan nan nan nan nan nan nan nan nan nan nan nan nan nan nan nan nan nan nan nan nan nan nan nan nan nan nan nan nan nan nan nan nan nan nan 0 0 0 0 0 0 0 0 0 0 0 0 0 0 0 0 0 0 0 nan nan nan nan nan
nan -0 -0 0 0 0 0 nan 0 0 0 0 0 0 nan nan nan nan nan nan nan nan nan nan nan nan nan nan nan nan nan nan nan nan nan nan nan nan nan nan nan nan nan nan nan nan nan nan nan nan nan nan nan nan nan nan nan nan nan nan nan nan 0 0 0 0 0 0 0 0 0 0 0 0 0 0 0 0 0 0 0 nan nan nan nan nan
nan nan nan nan nan nan nan nan -1 -1 0 0 0 0 nan nan nan nan nan nan nan nan nan nan nan nan nan nan nan nan nan nan nan nan nan nan nan nan nan nan nan nan nan nan nan nan nan nan nan nan nan nan nan nan nan nan nan nan nan nan nan nan 0 0 0 0 0 0 0 0 0 0 0 0 0 0 0 0 0 0 0 nan nan nan nan nan
nan nan nan nan nan nan nan nan nan nan nan nan nan nan nan nan nan nan nan nan nan nan nan nan nan nan nan nan nan nan nan nan nan nan nan nan nan nan nan nan nan nan nan nan nan nan nan nan nan nan nan nan nan nan nan nan nan nan nan nan nan nan -6 0 0 -3 -6 0 0 0 0 0 0 0 0 0 0 0 -0 nan nan nan nan nan nan nan
nan nan nan nan nan nan nan nan nan nan nan nan nan nan nan nan nan nan nan nan nan nan nan nan nan nan nan nan nan nan nan nan nan nan nan nan nan nan nan nan nan nan nan nan nan nan nan nan nan nan nan nan nan nan nan nan nan nan nan nan nan nan nan -26 -26 nan -24 -24 nan nan 0 nan nan nan nan nan nan nan nan nan nan nan nan nan nan nan
nan nan nan nan nan nan nan nan nan nan nan nan nan nan nan nan nan nan nan nan nan nan nan nan nan nan nan nan nan nan nan nan nan nan nan nan nan nan nan nan nan nan nan nan nan nan nan nan nan nan nan nan nan nan nan nan nan nan nan nan nan nan nan nan nan nan nan nan nan nan nan nan nan nan nan nan nan nan nan nan nan nan nan nan nan nan
nan nan nan nan nan nan nan nan nan nan nan nan nan nan nan nan nan nan nan nan nan nan nan nan nan nan nan nan nan nan nan nan nan nan nan nan nan nan nan nan nan nan nan nan nan nan nan nan nan nan nan nan nan nan nan nan nan nan nan nan nan nan nan nan nan nan nan nan nan nan nan nan nan nan nan nan nan nan nan nan nan nan nan nan nan nan
nan nan nan nan nan nan nan nan nan nan nan nan nan nan nan nan nan nan nan nan nan nan nan nan nan nan nan nan nan nan nan nan nan nan nan nan nan nan nan nan nan nan nan nan nan nan nan nan nan nan nan nan nan nan nan nan nan nan nan nan nan nan nan nan nan nan nan nan nan nan nan nan nan nan nan nan nan nan nan nan nan nan nan nan nan nan
nan nan nan nan nan nan nan nan nan nan nan nan nan nan nan nan nan nan nan nan nan nan nan nan nan nan nan nan nan nan nan nan nan nan nan nan nan nan nan nan nan nan nan nan nan nan nan nan nan nan nan nan nan nan nan nan nan nan nan nan nan nan nan nan nan nan nan nan nan nan nan nan nan nan nan nan nan nan nan nan nan nan nan nan nan nan
nan nan nan nan nan nan nan nan nan nan nan nan nan nan nan nan nan nan nan nan nan nan nan nan nan nan nan nan nan nan nan nan nan nan nan nan nan nan nan nan nan nan nan nan nan nan nan nan nan nan nan nan nan nan nan nan nan nan nan nan nan nan nan nan nan nan nan nan nan nan nan nan nan nan nan nan nan nan nan nan nan nan nan nan nan nan
nan nan nan nan nan nan nan nan nan nan nan nan nan nan nan nan nan nan nan nan nan nan nan nan nan nan nan nan nan nan nan nan nan nan nan nan nan nan nan nan nan nan nan nan nan nan nan nan nan nan nan nan nan nan nan nan nan nan nan nan nan nan nan nan nan nan nan nan nan nan nan nan nan nan nan nan nan nan nan nan nan nan nan nan nan nan
nan nan nan nan nan nan nan nan nan nan nan nan nan nan nan nan nan nan nan nan nan nan nan nan nan nan nan nan nan nan nan nan nan nan nan nan nan nan nan nan nan nan nan nan nan nan nan nan nan nan nan nan nan nan nan nan nan nan nan nan nan nan nan nan nan nan nan nan nan nan nan nan nan nan nan nan nan nan nan nan nan nan nan nan nan nan
nan nan nan nan nan nan nan nan nan nan nan nan nan nan nan nan nan nan nan nan nan nan nan nan nan nan nan nan nan nan nan nan nan nan nan nan nan nan nan nan nan nan nan nan nan nan nan nan nan nan nan nan nan nan nan nan nan nan nan nan nan nan nan nan nan nan nan nan nan nan nan nan nan nan nan nan nan nan nan nan nan nan nan nan nan nan
nan nan nan nan nan nan nan nan nan nan nan nan nan nan nan nan nan nan nan nan nan nan nan nan nan nan nan nan nan nan nan nan nan nan nan nan nan nan nan nan nan nan nan nan nan nan nan nan nan nan nan nan nan nan nan nan nan nan nan nan nan nan nan nan nan nan nan nan nan nan nan nan nan nan nan nan nan nan nan nan nan nan nan nan nan nan
nan nan nan nan nan nan nan nan nan nan nan nan nan nan nan nan nan nan nan nan nan nan nan nan nan nan nan nan nan nan nan nan nan nan nan nan nan nan nan nan nan nan nan nan nan nan nan nan nan nan nan nan nan nan nan nan nan nan nan nan nan nan nan nan nan nan nan nan nan nan nan nan nan nan nan nan nan nan nan nan nan nan nan nan nan nan
nan nan nan nan nan nan nan nan nan nan nan nan nan nan nan nan nan nan nan nan nan nan nan nan nan nan nan nan nan nan nan nan nan nan nan nan nan nan nan nan nan nan nan nan nan nan nan nan nan nan nan nan nan nan nan nan nan nan nan nan nan nan nan nan nan nan nan nan nan nan nan nan nan nan nan nan nan nan nan nan nan nan nan nan nan nan
nan nan nan nan nan nan nan nan nan nan nan nan nan nan nan nan nan nan nan nan nan nan nan nan nan nan nan nan nan nan nan nan nan nan nan nan nan nan nan nan nan nan nan nan nan nan nan nan nan nan nan nan nan nan nan nan nan nan nan nan nan nan nan nan nan nan nan nan nan nan nan nan nan nan nan nan nan nan nan nan nan nan nan nan nan nan
nan nan nan nan nan nan nan nan nan nan nan nan nan nan nan nan nan nan nan nan nan nan nan nan nan nan nan nan nan nan nan nan nan nan nan nan nan nan nan nan nan nan nan nan nan nan nan nan nan nan nan nan nan nan nan nan nan nan nan nan nan nan nan nan nan nan nan nan nan nan nan nan nan nan nan nan nan nan nan nan nan nan nan nan nan nan
nan nan nan nan nan nan nan nan nan nan nan nan nan nan nan nan nan nan nan nan nan nan nan nan nan nan nan nan nan nan nan nan nan nan nan nan nan nan nan nan nan nan nan nan nan nan nan nan nan nan nan nan nan nan nan nan nan nan nan nan nan nan nan nan nan nan nan nan nan nan nan nan nan nan nan nan nan nan nan nan nan nan nan nan nan nan
nan nan nan nan nan nan nan nan nan nan nan nan nan nan nan nan nan nan nan nan nan nan nan nan nan nan nan nan nan nan nan nan nan nan nan nan nan nan nan nan nan nan nan nan nan nan nan nan nan nan nan nan nan nan nan nan nan nan nan nan nan nan nan nan nan nan nan nan nan nan nan nan nan nan nan nan nan nan nan nan nan nan nan nan nan nan
nan nan nan nan nan nan nan nan nan nan nan nan nan nan nan nan nan nan nan nan nan nan nan nan nan nan nan nan nan nan nan nan nan nan nan nan nan nan nan nan nan nan nan nan nan nan nan nan nan nan nan nan nan nan nan nan nan nan nan nan nan nan nan nan nan nan nan nan nan nan nan nan nan nan nan nan nan nan nan nan nan nan nan nan nan nan
nan nan nan nan nan nan nan nan nan nan nan nan nan nan nan nan nan nan nan nan nan nan nan nan nan nan nan nan nan nan nan nan nan nan nan nan nan nan nan nan nan nan nan nan nan nan nan nan nan nan nan nan nan nan nan nan nan nan nan nan nan nan nan nan nan nan nan nan nan nan nan nan nan nan nan nan nan nan nan nan nan nan nan nan nan nan
nan nan nan nan nan nan nan nan nan nan nan nan nan nan nan nan nan nan nan nan nan nan nan nan nan nan nan nan nan nan nan nan nan nan nan nan nan nan nan nan nan nan nan nan nan nan nan nan nan nan nan nan nan nan nan nan nan nan nan nan nan nan nan nan nan nan nan nan nan nan nan nan nan nan nan nan nan nan nan nan nan nan nan nan nan nan
Wind_Speed
1 1 1 2 3 3 2 3 3 3 2 2 2 2 2 2 2 2 2 1 2 3 3 4 4 6 9 13 15 16 16 16 16 15 14 14 13 12 11 10 9 9 9 9 9 9 9 8 8 7 7 7 7 7 7 7 7 7 7 7 8 9 10 10 11 11 11 10 10 9 9 8 8 7 6 5 5 5 5 4 4 4 3 3 3 3
1 1 1 2 3 3 3 3 4 4 3 3 3 3 3 2 2 2 2 2 1 2 3 4 5 6 7 10 13 16 16 16 16 15 15 14 13 12 11 11 10 10 11 11 11 11 11 11 11 10 10 11 10 10 11 11 11 11 11 11 11 11 11 11 11 11 10 10 9 9 8 8 7 6 5 5 5 5 4 4 4 3 3 3 3 3
2 1 2 2 3 3 2 3 3 3 3 3 3 3 3 3 2 2 2 2 2 1 2 4 5 6 7 8 12 15 16 16 16 16 15 15 14 13 13 12 12 12 12 12 12 12 12 11 11 11 11 11 11 12 12 12 12 12 12 13 13 13 12 12 11 11 10 10 9 8 8 7 6 6 5 5 4 4 4 4 3 3 3 3 3 3
3 3 3 2 2 2 2 2 2 2 2 2 2 3 3 3 2 1 1 1 1 1 2 4 5 6 6 6 10 13 16 16 16 16 15 15 14 14 14 13 13 13 12 12 12 12 11 11 11 11 11 11 11 11 11 11 12 12 12 12 12 12 11 11 10 10 10 9 8 7 7 6 6 5 5 5 4 4 4 3 3 3 3 3 3 3
3 3 3 3 2 2 1 2 2 2 2 2 2 2 3 2 2 1 1 1 2 2 2 3 4 5 5 5 8 12 15 16 16 15 15 15 14 14 14 14 13 13 12 12 12 11 11 10 10 10 10 11 11 11 11 11 11 11 11 11 11 11 10 10 9 9 8 8 7 6 6 5 5 5 5 4 4 3 3 3 2 2 2 3 3 3
3 3 3 2 2 1 1 1 2 2 2 2 2 3 3 2 2 1 1 2 2 2 2 2 3 4 5 5 8 12 14 15 15 15 15 14 14 14 14 14 13 13 12 12 11 11 10 10 10 10 10 10 10 10 10 10 10 10 10 10 10 10 9 9 8 8 7 7 6 5 5 4 4 4 4 4 3 3 3 2 2 2 2 2 2 3
2 2 2 2 1 1 1 1 2 2 2 2 2 2 2 2 2 2 2 2 1 2 2 2 2 3 4 5 8 11 13 14 14 14 14 14 14 14 14 14 13 13 12 12 11 11 10 10 9 9 10 10 10 10 9 9 10 10 10 9 9 9 8 8 7 7 6 6 5 4 4 4 3 3 3 3 3 3 2 2 2 2 1 1 2 2
2 2 2 2 1 1 1 1 1 2 3 3 2 2 2 2 2 2 2 2 1 1 2 2 3 3 3 4 6 8 9 10 10 11 11 12 13 13 14 14 13 13 13 12 12 11 10 10 9 9 9 9 9 9 9 9 9 9 9 9 8 7 7 7 6 6 5 5 4 4 3 3 2 2 2 2 2 2 2 2 2 2 2 1 1 1
3 3 3 2 2 2 1 1 1 2 2 3 3 3 2 2 2 1 2 2 2 1 1 2 3 3 2 3 4 6 6 6 6 6 7 8 9 10 12 13 13 13 13 13 12 11 11 10 10 9 9 9 9 9 9 9 9 9 8 8 7 6 6 6 5 5 4 4 3 3 3 2 2 2 1 1 1 2 2 2 2 2 2 1 1 1
4 4 3 3 2 2 2 2 1 1 2 2 2 2 3 3 3 2 2 1 1 1 1 1 3 3 2 2 3 4 6 6 7 8 8 7 8 9 10 10 11 11 13 13 12 12 11 10 10 10 10 10 10 10 9 9 9 8 7 6 6 5 5 5 4 4 3 3 3 3 2 2 2 2 1 1 1 1 1 2 2 2 1 1 0 0
4 4 3 3 2 1 2 2 2 2 2 2 2 2 2 2 3 4 4 2 1 0 1 1 1 2 2 2 2 3 4 5 5 7 8 8 9 9 10 10 10 11 12 12 12 12 11 11 11 10 10 10 10 10 9 9 8 7 6 5 5 4 4 4 4 3 3 3 2 2 2 2 2 2 2 1 1 0 0 1 1 1 1 1 0 1
3 3 3 3 2 2 2 1 2 2 3 3 2 2 2 2 3 4 5 5 4 2 1 1 1 1 1 2 2 3 3 4 3 3 3 4 5 7 8 8 9 10 11 11 11 11 11 11 11 11 11 10 10 10 9 8 7 6 5 5 4 4 4 4 3 3 3 2 2 2 2 2 2 2 3 2 2 1 1 1 0 0 1 1 1 1
3 3 3 3 3 3 3 2 2 2 3 3 4 4 4 4 3 3 4 4 4 3 2 1 1 2 2 1 1 2 3 3 3 3 2 2 2 2 4 5 5 5 6 6 6 7 10 11 11 11 11 10 10 10 9 8 7 6 5 4 4 4 4 4 3 3 3 2 2 2 2 2 2 3 3 3 3 2 2 2 1 1 1 1 1 2
3 3 3 3 4 4 4 4 4 4 5 5 5 5 4 4 3 3 3 3 3 2 2 2 2 1 2 2 2 1 3 3 3 3 2 2 2 1 2 3 4 3 3 3 3 4 6 7 8 8 11 10 10 9 8 7 6 5 5 4 4 4 4 4 4 3 3 3 2 2 2 2 2 3 4 3 3 3 3 3 2 2 2 2 2 3
4 4 4 4 4 4 4 5 5 5 5 5 4 3 3 4 4 4 4 4 3 3 2 2 2 1 1 1 1 1 1 3 3 3 2 1 2 2 1 3 3 3 3 3 3 3 4 4 4 5 7 8 8 7 7 6 5 5 5 5 5 5 5 5 4 4 3 3 3 2 2 2 3 3 4 4 4 3 3 3 3 3 3 3 3 3
4 4 5 5 5 4 4 5 5 5 5 4 4 4 4 5 5 5 5 5 4 4 3 3 2 1 1 1 1 0 1 3 4 4 4 2 1 2 2 3 3 3 3 3 3 2 2 3 4 4 5 7 8 8 8 7 6 5 5 5 5 5 5 5 5 4 4 3 3 3 3 3 3 3 4 4 4 4 4 4 4 4 4 4 4 4
4 5 5 5 5 5 4 4 4 4 4 4 4 4 5 6 6 5 5 5 4 4 4 4 4 3 2 1 2 2 2 3 4 5 4 3 1 1 2 2 3 4 3 3 3 2 2 3 3 4 5 8 9 9 8 7 6 5 5 6 6 6 6 5 5 4 4 4 3 3 3 3 3 3 4 4 4 4 4 4 4 4 4 4 4 4
5 5 5 6 5 5 4 5 4 4 4 4 4 4 4 5 5 5 5 5 5 5 5 5 5 4 4 3 3 3 3 3 4 5 5 3 1 1 2 1 3 4 4 3 3 2 2 3 3 4 5 8 9 8 7 6 6 6 6 6 6 6 6 6 5 5 4 4 4 4 4 4 4 4 4 4 4 4 4 4 4 4 4 5 5 5
5 5 6 5 5 4 5 5 6 6 5 5 5 5 5 5 5 5 5 5 6 6 6 6 5 5 4 4 4 4 4 4 4 5 5 4 2 0 1 1 2 3 3 3 2 2 2 2 3 5 8 9 8 8 7 7 6 6 6 7 7 7 6 6 6 5 5 4 4 4 4 4 4 4 4 4 4 4 4 4 4 4 4 4 4 4
6 6 6 5 5 5 5 6 7 7 7 6 6 5 5 5 6 6 5 6 6 5 5 5 5 5 4 3 4 4 5 4 4 4 5 4 3 1 0 1 3 4 3 2 2 1 2 2 3 5 8 8 8 8 7 7 7 7 7 7 7 7 7 6 6 6 5 5 5 5 5 5 5 5 5 5 5 5 5 4 4 4 4 4 4 4
6 6 6 5 5 5 5 6 7 8 8 8 7 6 6 6 6 6 6 6 6 6 5 5 5 4 3 3 4 5 6 5 5 4 4 3 2 2 1 1 2 3 4 2 1 1 2 2 2 2 5 7 8 8 8 7 7 7 7 7 7 7 7 7 6 6 5 5 5 5 5 5 5 5 5 5 5 5 5 5 5 4 4 4 4 4
4 4 5 5 5 5 5 6 7 9 9 9 8 7 6 7 7 7 7 6 6 6 6 4 2 1 1 2 4 5 6 5 5 4 4 3 3 2 2 2 2 3 3 2 2 1 1 2 1 2 5 8 8 8 8 8 8 8 7 7 7 7 7 7 6 6 6 5 5 6 6 6 6 6 6 5 5 5 5 5 5 4 4 4 4 4
3 3 3 4 5 5 5 5 6 8 9 9 8 7 6 7 7 7 7 6 6 5 3 3 2 2 2 2 2 3 3 2 3 3 4 5 4 4 3 2 2 3 3 3 2 2 2 2 1 2 4 8 9 8 8 8 8 8 8 7 7 7 7 7 7 6 6 6 6 6 6 7 6 6 6 6 5 5 5 5 4 4 4 4 4 3
3 3 3 3 3 3 3 4 5 6 7 7 6 5 5 5 4 4 4 4 4 4 4 4 4 3 3 2 2 2 1 1 1 2 4 4 4 4 3 3 3 3 3 3 3 3 3 2 1 2 2 6 8 8 8 8 8 8 8 7 7 7 7 7 7 7 6 6 6 7 7 7 7 7 6 6 5 5 5 4 4 4 4 4 3 3
4 3 3 2 3 3 4 5 6 7 7 6 5 4 5 5 5 5 4 5 5 5 5 5 4 3 2 2 2 2 2 0 1 2 3 3 3 3 3 4 4 3 3 2 3 3 3 2 2 1 1 4 6 8 8 8 8 8 8 8 8 8 8 8 7 7 7 7 7 7 7 7 7 7 6 6 6 5 5 5 4 4 4 3 3 3
5 4 4 4 5 7 8 9 10 11 11 8 7 6 6 6 6 6 5 5 5 5 6 5 4 3 3 3 3 3 2 1 0 1 2 3 4 3 3 3 3 3 3 2 2 3 3 3 2 2 1 2 5 8 8 8 8 8 8 7 8 8 8 8 8 7 7 7 7 8 8 8 7 7 7 6 6 5 5 5 4 4 4 3 3 2
7 7 7 8 9 10 11 13 14 15 16 13 11 10 8 7 7 6 6 6 6 6 6 5 5 4 3 3 3 3 3 2 1 1 2 3 4 4 3 3 3 3 4 2 2 3 4 3 3 3 2 2 3 6 8 8 8 8 7 7 7 8 8 8 8 8 8 8 8 8 8 8 7 7 7 6 6 6 5 5 5 4 4 3 2 2
9 9 9 10 11 12 14 15 16 17 17 17 17 15 11 9 8 7 7 7 7 7 7 6 5 4 4 4 3 3 3 3 3 2 2 3 4 4 3 3 3 4 4 3 2 2 2 2 3 3 3 2 2 3 6 7 8 7 7 7 7 8 8 8 9 9 8 8 8 8 8 8 8 7 7 7 6 6 6 5 5 4 3 2 1 1
9 10 10 11 12 13 14 15 15 17 18 19 19 17 12 9 8 8 7 7 7 7 7 6 5 4 4 3 3 2 3 4 4 3 3 3 3 3 3 3 3 3 4 3 2 1 1 0 1 1 2 3 3 2 3 5 6 5 6 7 7 8 8 9 9 9 9 9 9 9 9 8 8 8 7 7 7 6 6 5 4 3 2 1 1 1
6 7 7 9 10 11 12 11 12 15 18 19 18 16 11 7 6 6 7 8 8 8 7 6 5 5 4 4 3 2 3 4 4 4 3 4 4 4 4 4 4 4 4 3 2 1 1 1 1 0 2 3 3 2 1 2 2 2 3 5 6 7 9 9 10 10 10 10 9 9 9 8 8 8 7 7 7 6 5 5 4 2 1 1 1 0
4 5 4 5 6 6 7 7 8 11 14 16 15 12 8 6 5 5 6 7 8 7 7 6 6 5 5 5 4 4 4 4 5 5 4 4 4 4 5 5 4 4 3 3 3 2 1 1 1 1 1 2 2 2 2 2 2 1 1 2 3 5 8 10 10 10 10 10 9 9 9 8 8 7 7 7 6 6 5 4 3 2 2 1 1 1
5 5 4 4 4 4 4 5 5 6 8 8 8 7 5 5 4 4 5 6 6 6 6 5 5 6 6 5 5 4 3 4 6 7 6 4 3 3 5 5 4 3 2 2 3 4 3 2 1 1 0 1 1 1 2 2 2 2 2 2 3 4 8 9 9 9 8 9 9 9 8 8 7 7 6 6 5 5 4 4 3 2 2 2 1 1
5 5 4 4 4 3 4 4 4 4 5 4 4 4 4 4 4 5 5 5 5 5 5 5 6 6 6 5 4 3 2 4 7 9 8 5 3 3 4 4 4 3 2 2 2 3 3 2 2 1 1 1 1 1 2 2 2 2 2 3 3 3 5 6 6 6 6 6 6 7 7 7 6 6 6 5 5 4 4 3 3 2 2 2 1 1
6 5 5 5 4 4 4 4 4 5 4 4 4 3 3 3 4 4 4 4 4 4 4 5 6 6 6 5 3 2 2 3 7 10 10 5 4 4 4 5 5 4 3 2 2 2 2 2 3 2 1 1 1 1 1 2 2 1 1 2 2 2 3 3 4 4 4 4 3 3 4 4 4 5 4 4 4 4 4 3 3 3 2 2 1 1
6 6 6 5 5 5 5 5 5 5 5 4 4 4 4 3 3 3 3 3 3 2 3 3 4 5 6 5 4 3 3 4 8 11 10 6 4 4 4 5 5 5 4 3 3 2 2 3 3 3 3 2 1 1 1 1 1 1 1 2 2 2 2 3 3 3 3 3 3 2 2 2 2 2 2 3 3 4 4 4 4 4 4 3 2 2
6 6 6 6 6 6 6 6 5 5 5 4 4 4 4 4 4 4 4 3 4 4 3 3 2 3 4 5 5 5 4 5 8 10 10 6 5 4 4 5 5 6 5 4 3 3 3 3 4 4 4 3 2 1 1 1 1 1 2 2 2 2 2 2 3 3 3 3 2 2 2 1 1 1 1 3 4 4 4 4 4 4 4 4 4 4
6 6 6 6 6 6 6 5 5 5 5 4 4 4 4 4 4 4 4 4 4 4 4 4 4 3 3 3 4 4 5 6 7 8 8 6 5 4 4 4 5 6 5 5 4 4 4 4 4 4 4 3 3 2 2 2 2 2 1 1 2 2 2 2 3 3 3 3 3 2 2 2 2 2 2 3 4 3 3 3 4 4 5 5 6 6
6 6 6 6 5 5 6 5 5 5 5 4 4 5 5 5 5 5 5 5 5 5 5 5 5 5 7 6 6 5 5 6 6 7 7 6 5 4 4 4 5 5 5 5 5 5 5 5 5 4 3 3 3 3 4 4 3 3 2 1 1 2 1 2 2 3 3 3 3 3 2 2 2 2 1 1 1 1 0 1 2 3 4 5 6 7
6 6 6 6 6 6 6 5 5 5 5 5 5 5 6 6 6 6 5 5 5 6 6 6 6 6 7 8 8 7 7 6 6 6 6 5 4 4 4 5 5 5 4 4 4 4 5 5 5 4 4 3 3 3 3 4 4 4 3 2 1 1 0 1 2 2 3 3 3 2 2 2 2 2 2 2 2 2 1 0 1 2 2 2 3 5
7 6 7 7 7 6 6 6 6 5 6 6 6 7 6 6 6 6 5 6 6 6 7 7 7 7 7 8 8 7 6 5 5 5 4 3 3 3 4 5 5 5 4 3 3 4 4 4 4 4 4 4 4 4 3 3 4 4 5 3 2 1 2 2 2 2 2 3 3 2 2 1 1 2 2 2 2 2 2 2 1 1 1 1 1 1
7 6 6 6 6 6 6 6 6 6 6 6 6 6 6 6 5 5 5 5 5 5 6 7 7 7 7 7 6 6 6 6 5 4 3 3 3 4 5 5 5 5 5 4 3 3 4 4 4 3 3 3 4 4 4 4 6 7 7 5 3 3 3 3 3 3 3 3 3 3 3 2 2 2 2 2 2 3 3 3 2 2 1 2 2 2
8 7 6 5 5 5 5 6 6 7 7 6 6 6 5 5 5 5 5 4 4 4 4 4 5 5 6 5 5 5 6 5 5 5 4 4 4 4 5 5 5 5 5 4 4 3 3 4 4 4 3 4 4 4 3 4 5 6 6 5 4 3 2 3 3 3 3 3 3 3 3 3 2 2 2 2 2 2 2 3 3 3 2 2 2 3
7 6 5 5 5 6 7 8 7 7 6 6 5 5 5 5 5 6 6 5 5 5 4 4 5 5 5 4 4 4 4 5 5 5 5 5 4 5 5 5 5 4 4 5 4 3 2 3 3 3 3 4 4 4 4 4 5 5 5 5 5 4 2 2 2 2 3 3 3 3 3 2 2 2 2 1 1 1 1 2 3 3 3 2 2 2
6 5 5 5 6 6 7 6 6 6 6 6 6 5 4 5 5 6 6 5 5 5 5 4 4 5 5 5 4 3 3 4 5 5 6 6 5 5 5 4 4 4 4 4 4 4 3 2 2 1 2 3 4 4 5 5 4 4 4 5 5 4 3 3 3 3 3 2 2 2 2 2 2 2 1 1 0 0 0 1 1 1 1 2 2 2
6 6 6 6 6 6 6 6 6 6 6 6 6 6 5 5 6 6 5 6 6 6 5 5 5 5 4 4 3 3 2 2 3 4 5 6 7 7 5 4 4 4 4 4 4 4 4 3 2 1 1 3 3 4 5 5 5 4 5 4 4 3 2 3 4 4 4 3 2 2 2 2 2 2 1 0 0 1 1 1 1 1 1 1 1 1
6 6 6 6 6 7 7 7 7 6 6 6 6 6 5 5 5 5 6 6 6 6 5 5 5 5 5 5 5 4 3 2 2 3 3 4 4 5 5 5 5 4 4 3 3 3 3 3 3 3 3 3 3 3 3 4 5 4 4 4 3 2 2 2 3 4 4 4 3 3 2 3 3 2 1 1 1 1 1 1 2 3 2 2 2 2
7 7 7 7 6 6 7 7 7 7 7 7 6 6 5 5 5 5 6 6 6 6 5 4 4 5 6 6 6 5 5 4 3 2 2 2 3 3 4 4 5 5 5 4 4 4 3 3 3 3 4 3 3 2 1 3 4 4 4 4 3 3 2 2 2 3 4 5 4 4 3 3 3 2 2 1 1 1 2 2 2 3 3 3 3 3
8 8 8 7 7 7 7 7 7 7 7 7 6 6 6 6 6 7 6 6 6 6 5 5 4 5 5 5 5 6 6 6 5 4 3 2 2 2 3 3 4 4 5 5 5 5 4 3 3 3 3 4 3 3 2 2 3 3 4 4 4 3 2 2 2 3 4 4 4 4 4 4 3 3 2 1 0 1 2 2 2 3 3 3 4 4
8 8 8 8 8 7 7 7 7 7 8 7 7 6 5 6 8 8 6 5 5 5 5 5 5 5 5 5 5 6 6 6 5 4 4 3 2 2 2 2 3 3 3 4 4 4 3 3 2 2 2 3 4 4 3 3 2 3 3 3 3 3 3 2 2 3 3 4 4 4 4 4 3 3 4 2 1 1 2 2 3 3 3 3 3 4
7 7 8 8 8 8 8 8 8 8 8 8 8 7 6 5 5 5 5 5 5 5 5 5 6 6 6 6 6 6 6 6 5 4 4 3 3 3 3 3 3 3 3 2 3 3 3 3 3 2 1 2 3 4 4 3 3 2 2 2 3 3 3 2 2 3 4 4 4 4 4 3 2 3 4 3 2 1 1 2 2 3 3 2 3 3
7 7 7 7 7 8 8 8 8 8 8 8 8 7 6 6 5 5 4 5 5 5 4 5 5 6 6 6 7 7 7 6 6 5 5 4 4 4 4 3 3 3 3 2 2 2 2 2 2 2 2 3 4 5 4 4 4 3 2 2 2 2 3 2 2 3 4 4 4 4 4 3 3 3 3 3 2 1 1 2 2 3 3 2 2 3
Wind_Direction
173 167 161 145 145 154 183 180 173 168 171 170 171 171 162 138 101 62 45 108 159 166 162 157 154 152 150 148 147 145 144 142 140 138 136 134 133 132 132 132 131 127 123 118 113 109 106 102 99 97 95 92 92 93 93 94 96 99 103 108 110 111 111 111 111 110 108 106 103 99 95 92 88 85 82 78 75 71 67 61 53 43 33 20 10 8
204 180 182 167 163 168 189 188 183 179 178 177 175 169 157 141 109 57 21 11 42 154 157 150 148 148 150 148 147 146 145 143 140 138 137 136 135 135 134 132 128 123 119 113 109 105 102 98 95 92 88 85 83 80 78 78 77 77 76 80 82 84 86 88 89 90 90 89 88 86 85 84 81 79 76 74 71 67 62 55 45 33 20 9 360 356
187 195 201 185 178 176 184 188 185 179 172 171 169 164 156 145 122 75 24 358 360 59 142 146 146 146 148 148 148 147 146 143 141 140 139 138 138 137 136 133 130 126 121 117 113 109 106 103 100 97 92 89 86 82 79 78 76 75 74 74 74 75 76 75 76 76 75 75 74 73 73 72 70 67 65 64 62 60 56 48 37 25 13 1 351 346
183 193 197 191 187 185 181 175 168 161 153 148 147 145 138 127 109 79 21 3 14 46 103 136 142 145 146 148 148 148 146 144 142 141 141 141 141 140 138 136 133 130 126 122 118 115 112 110 107 103 99 95 91 87 84 82 80 78 77 76 75 74 73 72 72 71 70 68 67 65 63 62 59 56 54 51 50 48 46 40 30 18 7 356 345 338
186 192 187 182 184 187 178 155 144 136 125 114 106 102 96 93 89 74 31 29 40 56 78 117 134 142 144 146 147 147 146 144 143 143 143 143 143 142 140 138 136 133 130 127 124 121 119 117 114 110 106 101 97 93 90 87 84 82 79 77 76 74 73 72 71 70 68 67 63 60 57 54 51 47 44 40 37 34 32 26 18 9 359 348 339 333
184 184 177 174 172 168 154 145 139 133 117 95 81 77 77 77 76 69 50 45 52 62 72 93 118 132 138 142 145 146 145 144 144 144 145 145 145 144 142 141 139 137 135 132 130 128 127 124 121 117 112 108 104 101 97 93 89 86 83 80 78 76 74 72 71 70 68 66 63 59 54 49 45 40 36 30 24 17 10 3 354 346 341 336 331 328
174 168 162 158 148 138 130 151 153 147 133 116 96 83 78 72 66 60 54 53 61 74 82 84 97 114 129 137 141 143 143 143 144 145 146 147 147 146 145 144 143 141 140 138 137 136 135 132 129 124 120 116 112 108 104 98 93 89 85 82 80 78 76 74 72 71 69 68 65 61 55 50 44 37 30 23 13 3 351 337 324 314 308 311 315 318
174 165 162 154 143 134 132 158 164 160 150 142 132 119 101 80 67 58 49 41 44 68 93 94 96 103 119 133 138 139 141 142 143 145 148 149 149 149 149 148 148 147 146 144 143 142 141 139 135 131 127 122 117 112 106 100 95 90 87 84 81 80 78 76 74 73 71 71 70 67 63 58 51 42 33 23 8 354 338 321 307 295 283 282 283 292
182 178 179 174 165 157 151 164 169 166 158 152 149 145 138 126 107 80 56 35 22 25 88 113 114 112 113 126 134 137 139 141 144 147 150 150 151 152 152 152 151 151 151 149 148 146 145 143 140 136 131 125 119 112 106 101 96 91 88 86 84 82 80 79 78 76 75 75 76 76 75 74 69 62 52 35 15 352 331 315 302 292 281 270 257 252
184 181 181 182 177 167 157 161 161 157 153 148 147 147 146 147 143 133 111 69 7 352 20 115 125 125 116 113 123 132 138 142 146 150 152 154 155 154 153 153 153 154 154 152 151 149 148 146 144 139 133 126 119 113 108 103 99 96 93 91 90 89 87 85 84 82 81 81 82 84 87 90 92 92 87 75 50 2 327 313 307 304 302 291 247 200
185 180 175 176 175 168 148 145 142 138 134 127 120 120 137 156 157 155 155 160 167 297 11 66 105 120 123 114 113 119 127 133 139 145 149 154 156 155 153 152 153 155 155 154 152 151 151 149 146 141 135 128 122 117 113 109 106 103 102 101 101 102 101 99 96 94 91 90 91 93 98 105 109 111 110 109 109 113 281 299 317 332 342 350 54 121
183 178 173 169 166 158 138 118 115 122 133 135 139 151 179 186 178 169 166 167 167 165 143 50 32 45 85 108 117 120 120 120 120 121 127 140 151 154 152 152 153 154 155 153 153 153 153 152 148 143 137 132 127 123 119 116 114 113 114 117 119 121 120 117 113 109 105 102 101 102 108 113 117 118 118 120 128 142 162 165 126 55 28 41 72 98
179 171 170 170 170 167 158 145 140 147 164 171 176 181 185 187 185 177 167 163 162 158 142 109 47 16 7 25 88 122 127 123 116 106 91 83 102 131 146 145 147 148 147 146 149 153 155 152 149 144 139 135 132 129 127 125 124 125 129 134 138 139 137 132 128 123 118 116 114 113 115 116 116 117 117 121 130 142 152 151 142 121 92 88 94 100
177 168 169 176 179 179 174 168 169 174 184 188 189 185 175 169 169 167 155 148 143 136 120 110 91 41 357 358 8 72 130 127 119 105 85 57 37 58 125 130 130 126 119 118 124 138 147 148 146 143 141 137 134 133 133 133 134 137 143 148 152 152 148 143 139 134 130 128 127 125 121 118 115 115 116 119 126 133 141 142 137 128 117 108 105 104
179 174 178 185 187 185 182 181 183 185 187 187 183 170 147 153 162 167 160 153 144 130 114 110 103 77 348 349 346 360 121 133 130 122 109 67 14 9 69 114 117 113 108 110 109 110 114 123 128 133 136 136 136 137 141 141 145 150 154 159 160 160 156 151 146 142 139 139 138 135 129 121 117 117 117 119 120 123 126 126 123 118 112 107 103 100
183 181 187 192 192 189 185 185 188 189 185 181 173 164 156 164 172 174 169 160 152 146 144 144 146 161 259 278 285 270 159 147 142 138 132 114 18 354 28 110 120 118 112 113 112 105 93 100 112 123 130 139 143 146 148 150 154 159 162 165 166 165 161 156 152 149 147 148 148 145 138 129 124 122 122 121 119 118 115 113 110 106 102 99 96 92
189 191 195 196 195 192 183 186 189 188 178 176 175 173 171 173 175 174 170 159 156 161 170 168 169 174 190 219 235 225 195 162 150 144 138 137 104 356 8 105 128 131 125 122 122 120 111 109 114 124 137 146 149 151 153 156 160 164 168 170 170 167 164 160 157 155 154 155 155 153 145 138 134 131 130 127 124 119 113 108 104 100 98 95 91 87
197 197 198 200 197 190 177 183 188 188 176 175 177 177 175 174 172 170 167 163 167 173 180 182 183 181 173 184 194 197 187 171 156 147 142 146 140 16 4 71 124 133 131 130 129 126 121 123 130 139 145 151 153 155 158 162 165 169 172 173 172 170 166 163 162 160 160 160 160 158 153 148 145 142 138 136 131 126 119 113 107 102 99 96 93 89
204 200 200 202 198 188 176 182 185 185 179 179 177 174 174 174 172 171 172 173 177 181 183 187 191 192 184 180 174 170 174 173 159 151 150 152 151 110 7 73 117 129 131 135 136 131 123 127 144 151 153 155 157 160 163 167 171 174 176 175 174 172 169 168 167 166 165 165 164 164 161 158 155 153 148 145 141 137 131 124 117 111 106 102 99 95
208 204 202 200 196 189 185 186 186 185 181 177 173 172 175 174 175 177 179 181 184 187 186 190 194 196 187 162 151 154 167 169 160 152 150 149 151 156 90 124 131 134 136 140 141 134 119 118 137 151 158 159 162 165 169 172 175 178 179 178 176 174 173 173 171 169 167 167 168 168 167 165 163 160 157 153 150 146 140 134 128 122 115 110 106 102
212 211 206 198 194 194 194 189 186 183 179 172 171 174 178 175 178 182 183 182 184 187 191 195 196 189 163 150 153 159 166 167 162 153 142 140 146 160 179 150 139 137 141 147 147 130 113 112 122 149 163 164 166 169 172 176 178 180 180 179 178 177 176 176 174 172 169 170 171 172 171 169 167 164 161 157 153 148 143 138 133 128 123 119 115 111
217 215 207 200 200 201 198 185 180 178 174 170 173 178 180 178 180 183 183 181 183 186 191 191 181 133 105 132 149 158 164 167 164 153 135 141 154 170 178 163 143 136 142 151 154 137 111 115 130 161 171 170 170 172 175 178 180 181 180 180 180 179 179 178 175 172 171 172 173 174 172 169 167 164 160 156 151 146 141 137 133 130 127 124 121 119
225 226 217 209 208 206 197 177 171 170 171 173 177 181 179 179 180 181 179 178 175 167 146 119 89 63 55 80 110 133 151 160 154 144 138 155 165 171 172 165 151 143 146 152 154 147 127 132 158 183 183 176 174 175 176 179 180 180 180 180 180 181 180 178 176 173 173 175 175 174 171 168 165 162 158 154 150 146 141 137 134 132 129 126 125 122
228 233 233 225 214 200 180 163 161 164 169 175 177 174 166 165 162 159 154 149 136 120 107 100 89 76 63 81 102 123 149 107 117 135 147 158 158 157 162 164 160 153 145 147 146 144 137 146 173 199 198 180 177 176 177 179 180 180 179 180 181 182 181 178 175 174 175 177 177 175 171 167 164 161 158 155 153 150 146 144 140 136 132 129 125 123
219 224 226 217 192 172 161 157 159 161 165 165 158 144 129 120 111 103 98 103 108 113 118 116 115 114 116 131 148 167 196 10 86 134 151 145 139 141 159 164 160 152 140 139 141 141 139 152 167 188 200 182 178 177 177 179 179 179 179 181 182 182 181 178 175 174 176 177 176 174 170 167 164 163 161 159 158 157 155 152 148 144 139 134 129 126
201 197 192 180 167 160 157 158 160 161 161 156 148 138 127 119 112 107 108 117 127 134 136 140 146 151 152 157 171 184 195 203 109 117 136 129 131 141 161 161 150 137 128 132 140 145 146 154 161 167 171 181 180 179 178 178 178 179 180 183 184 184 182 178 176 175 176 177 176 173 170 168 166 165 164 164 163 163 162 159 156 152 148 144 142 142
187 181 176 168 161 158 158 158 159 159 159 156 151 146 138 133 131 134 145 153 155 155 157 163 162 158 155 167 177 182 182 185 184 157 130 124 131 143 163 155 139 127 124 132 150 160 157 158 160 164 170 180 183 181 180 179 179 180 182 186 188 187 184 180 177 176 177 177 176 174 172 170 169 168 167 167 166 165 164 163 161 159 157 156 155 165
177 173 169 164 161 159 159 159 160 160 159 157 154 151 148 147 151 159 169 166 164 165 172 172 167 160 161 172 173 172 174 185 189 182 155 126 131 144 161 151 138 130 128 131 142 154 152 151 155 162 170 175 178 181 182 182 181 182 187 191 193 192 188 183 180 178 178 178 177 176 174 173 172 171 170 168 167 166 165 164 163 163 164 166 173 197
170 168 166 164 162 161 161 160 161 161 161 160 159 159 159 161 166 171 171 165 166 172 180 178 171 161 154 150 144 148 180 192 190 177 153 128 130 142 153 148 142 136 132 124 106 65 32 56 144 160 165 165 163 167 183 183 183 185 192 198 200 199 194 188 184 181 180 180 180 179 178 177 176 174 172 170 169 167 166 165 163 160 157 157 166 190
166 164 164 164 163 162 161 161 162 163 164 164 165 166 168 171 172 170 163 164 170 176 181 177 169 156 142 131 130 151 197 199 189 173 153 138 137 144 150 153 154 149 139 129 114 79 344 319 308 172 153 154 153 155 172 178 179 185 196 206 208 206 201 194 188 184 183 182 181 181 180 178 177 175 173 171 170 169 166 164 157 138 82 71 67 82
163 160 160 161 159 158 157 159 161 164 165 166 167 168 170 171 168 163 160 168 175 179 179 172 164 156 150 146 154 173 195 192 183 174 164 149 144 147 155 157 160 161 150 139 135 139 170 256 282 297 122 142 150 160 171 170 170 175 188 207 217 215 207 197 190 185 183 182 181 180 179 177 175 173 170 169 168 167 166 162 147 113 74 61 47 35
163 159 156 151 146 144 146 150 153 156 158 160 161 161 158 157 156 158 163 172 176 177 172 164 159 160 164 167 173 177 178 173 173 174 169 151 139 143 157 156 159 162 152 135 137 143 150 178 211 243 90 150 162 175 182 180 178 178 180 189 207 213 206 194 186 180 177 177 176 174 171 169 167 165 164 164 165 166 166 164 147 112 83 66 46 24
163 158 151 145 139 135 135 136 136 135 135 134 133 134 137 141 146 153 163 170 173 170 162 157 158 162 170 173 171 162 153 159 169 172 169 151 135 139 153 153 155 155 137 109 115 128 135 152 162 172 184 184 180 180 186 184 179 175 176 178 187 197 196 180 169 161 157 160 160 160 159 157 157 158 160 162 166 170 173 177 170 147 111 90 64 28
160 155 148 143 138 133 129 125 122 121 120 118 119 119 119 123 131 140 148 155 159 159 157 158 161 164 169 165 155 140 148 163 169 170 168 151 139 142 150 155 156 154 143 126 110 108 113 129 137 141 149 163 171 175 180 179 171 161 161 159 159 161 165 147 136 128 127 122 123 129 136 141 148 154 159 168 177 185 193 199 201 199 191 158 129 93
158 153 150 146 142 138 134 129 125 123 122 122 122 120 115 111 109 111 114 113 113 120 134 152 160 164 166 161 157 156 171 170 171 170 166 155 143 140 147 159 162 160 154 149 137 123 116 129 136 139 137 142 156 184 192 176 146 113 99 120 130 134 132 123 121 119 116 110 106 104 105 112 128 145 162 186 197 204 210 215 218 222 223 210 193 169
158 155 153 151 148 146 143 140 136 133 130 128 124 117 109 102 97 93 91 88 86 85 84 93 116 142 154 155 157 161 167 165 167 168 165 156 145 140 146 162 165 163 159 157 149 139 130 135 140 142 139 141 151 174 197 162 106 81 71 88 101 112 115 114 117 119 120 123 128 131 131 132 137 155 183 205 210 214 218 223 228 233 237 233 227 215
160 158 157 156 153 151 149 146 143 140 137 132 123 113 105 101 98 95 92 89 88 87 85 79 75 77 87 116 133 144 151 155 159 161 159 151 142 139 143 157 165 166 164 161 155 147 136 137 141 145 147 150 156 163 168 153 127 104 94 98 103 105 105 103 108 114 120 133 143 150 152 153 157 168 189 207 210 213 221 231 240 248 248 248 244 237
163 162 160 159 157 155 152 150 148 145 140 133 124 115 108 104 101 98 94 89 88 88 87 80 73 68 66 79 90 104 119 130 138 141 141 138 135 133 134 146 161 169 169 163 157 151 144 145 149 155 161 160 157 155 156 156 155 154 152 127 104 98 105 106 109 112 118 130 140 145 146 144 145 148 156 163 136 104 90 290 284 274 262 260 254 247
167 165 163 163 161 159 156 154 150 144 136 129 124 119 112 104 98 94 91 88 86 85 85 84 79 72 66 71 76 83 91 100 108 114 118 121 125 129 133 143 156 166 167 158 152 149 149 150 155 159 161 154 147 144 147 156 160 160 154 125 90 71 109 123 122 120 121 127 131 134 131 125 124 127 128 114 106 104 118 280 280 272 262 273 268 259
168 167 166 166 164 161 157 151 144 136 129 125 121 117 112 106 99 93 89 88 87 86 85 83 80 75 67 64 64 64 65 69 74 79 91 100 114 127 137 146 153 158 158 152 146 144 145 146 147 150 150 145 144 146 149 159 164 163 156 149 157 189 203 169 149 138 131 132 136 141 145 132 127 130 139 138 142 151 166 184 212 225 208 179 197 250
168 167 167 164 159 151 143 138 134 130 129 126 124 121 118 115 112 107 101 94 92 90 91 86 82 75 66 59 53 49 47 46 44 45 57 74 101 122 135 143 148 151 151 148 144 140 141 139 140 141 139 134 134 140 149 163 168 169 168 169 173 179 177 173 166 156 145 143 146 151 156 148 145 146 157 165 173 177 175 173 184 196 184 155 151 155
169 167 165 157 148 141 134 130 129 129 129 128 128 130 132 131 130 127 123 116 110 107 105 103 97 89 78 63 50 41 37 34 35 38 47 63 87 109 126 135 141 144 142 140 138 135 133 136 139 143 145 137 133 135 148 162 169 172 174 167 151 135 131 174 177 166 156 159 157 155 157 153 156 165 172 185 200 205 188 180 182 184 178 165 155 153
168 163 154 144 138 135 132 131 132 133 134 133 135 137 140 139 138 136 132 129 128 126 121 116 112 109 102 89 66 39 23 18 21 29 37 51 71 92 110 120 127 133 135 134 134 132 123 119 125 137 148 139 135 136 146 157 164 168 169 157 145 137 147 203 199 173 157 160 158 154 153 155 161 167 169 180 198 210 205 202 202 197 179 168 164 162
157 147 136 133 132 132 133 136 140 142 141 140 140 141 143 143 141 138 134 133 133 131 126 120 114 109 107 106 97 71 29 13 14 21 30 43 58 75 89 96 102 108 119 129 134 136 122 107 107 123 135 123 125 133 144 153 160 165 167 159 154 155 170 177 169 159 153 157 158 157 156 151 142 130 117 121 143 217 203 200 210 210 191 163 154 157
143 136 134 135 137 138 141 144 145 145 143 142 142 143 147 147 145 142 138 137 136 135 134 131 124 117 115 120 120 111 78 35 23 22 24 34 45 56 67 75 81 85 93 109 123 130 129 131 133 125 92 95 108 125 143 151 157 161 163 159 153 148 154 150 149 151 156 160 168 170 159 136 121 108 96 73 314 283 233 194 198 210 224 195 171 169
141 140 142 143 144 145 148 148 146 144 142 142 143 146 150 149 146 143 141 140 139 140 144 140 134 131 134 138 138 134 122 98 67 43 31 26 29 35 48 58 65 72 78 81 88 99 116 132 137 125 91 83 87 105 135 147 152 156 160 154 142 122 99 122 144 154 158 163 169 171 153 122 113 113 130 175 261 281 270 216 201 201 210 208 201 196
147 147 148 148 148 148 148 147 146 145 145 145 147 150 151 148 145 143 142 141 141 142 145 139 134 133 139 143 146 145 142 136 125 104 75 53 42 41 47 54 58 61 69 69 69 69 77 99 115 119 113 108 108 113 131 139 145 151 158 152 140 127 119 144 163 167 162 163 165 163 142 122 119 128 149 168 254 290 289 256 224 210 204 202 201 202
150 150 151 150 149 148 148 150 150 149 148 148 149 151 153 152 150 147 144 145 144 144 145 140 135 133 137 143 148 150 148 145 141 135 123 108 86 69 62 62 61 61 62 63 64 66 68 76 90 106 118 126 134 146 162 148 144 147 153 149 144 140 145 166 176 172 162 161 160 156 144 140 143 151 154 151 205 292 288 275 256 235 214 202 198 199
151 152 153 152 151 151 153 154 154 152 150 149 150 151 155 154 152 150 146 147 147 146 147 145 142 140 141 145 148 148 145 143 141 138 136 132 123 108 92 81 73 66 58 52 48 47 48 50 60 86 121 128 135 143 156 155 149 143 138 140 143 146 151 163 168 164 156 155 154 153 150 149 148 145 141 146 173 250 278 279 271 258 235 210 197 193
153 154 155 154 154 155 156 156 155 154 152 151 151 152 154 153 150 148 145 145 146 147 148 147 145 144 145 148 150 150 148 145 143 142 144 143 137 131 122 112 99 87 69 52 39 31 27 20 12 8 159 158 149 143 146 152 148 137 126 136 142 144 147 155 162 160 153 150 148 147 143 138 128 122 125 141 163 222 276 284 280 271 256 225 201 193
156 157 156 156 156 156 157 157 157 155 154 153 153 152 152 150 148 145 144 145 146 147 148 147 146 146 149 151 153 153 153 149 148 149 152 150 146 142 139 134 128 118 106 95 82 71 67 47 6 330 291 223 191 170 149 151 149 146 146 160 155 145 141 147 152 153 148 146 142 139 137 134 127 121 124 136 148 178 262 280 279 274 267 238 204 194